Find Starlink 32294

NORAD ID: 61675 Int'l Des: 2024-193 Owner: SPXS Country: US Constellation: starlink operational
LEOCIRCULAR

Current View

Loading 3D Globe...

About Starlink 32294

Starlink 32294 (NORAD 61675) is a starlink constellation satellite (v2 mini) launched Oct 26, 2024 by SPXS of US. It operates in LEO, CIRCULAR orbit with a mass of 730.00 kg.

Upcoming Passes

Passes for default location (London). Set your location on the main map for personalized predictions.

Altitude History

Loading altitude history...

Two-Line Element Set

1 61675U 24193Q 26263.23175246 .00000538 00000-0 29084-4 0 9996
2 61675 53.1604 265.8364 0001281 87.9531 272.1617 15.31703370106334
Epoch: Sep 20, 2026 • Age: 32 hours

Current Status

Altitude 470.7 km
Apogee / Perigee N/A
Velocity 7.63 km/s
Sub-Earth Point 8.93°N, 131.79°W
Launch Date Oct 26, 2024
Age 1.9 years
Type internet

Technical Details

Classification Payload
Mass 730.00 kg
Dry Mass 700.00 kg
Length 0.30 m
Span 29.00 m
Shape ? Box + pan
Manufacturer SPXS
Bus Type Starlink V2M
Phase Status In Orbit
Owner/State SPXS/US

Most Searched